ACA852 CYYZ-EGLL

Flight info

Callsign ACA852
Flight time N/A
Altitude 33000
Route VERDO7 IPTOS Q921 AGLUK DCT BAREE N581A TUDEP/M084F350 NATT NETKI/N0482F350 DCT BOFUM Q37 MALUD Q38 NUGRA
Aircraft B77W/H-SDE1E2E3FGHIJ2J3J4J5M1RWXY/LB1D1

Departure

Time 2026-05-05 22:30
Airport Toronto Pearson International Airport (CYYZ)

Arrival

Time N/A
Airport London Heathrow Airport (EGLL)
Time Latitude Longitude Altitude Speed Heading
2026-05-05 21:29 43.67585 -79.61169 566 ft 0 kts
2026-05-05 22:13 43.67582 -79.61170 574 ft 3 kts
2026-05-05 22:14 43.67555 -79.61174 566 ft 4 kts
2026-05-05 22:14 43.67528 -79.61179 570 ft 4 kts
2026-05-05 22:14 43.67506 -79.61182 570 ft 4 kts 355°
2026-05-05 22:14 43.67484 -79.61172 566 ft 4 kts 302°
2026-05-05 22:15 43.67478 -79.61139 566 ft 4 kts 263°
2026-05-05 22:15 43.67482 -79.61103 566 ft 4 kts 259°
2026-05-05 22:15 43.67488 -79.61067 568 ft 4 kts 253°
2026-05-05 22:15 43.67494 -79.61043 566 ft 4 kts 250°
2026-05-05 22:16 43.67495 -79.61037 566 ft 4 kts 249°
2026-05-05 22:16 43.67500 -79.61021 566 ft 2 kts 248°
2026-05-05 22:19 43.67499 -79.61025 566 ft 2 kts 249°
2026-05-05 22:19 43.67491 -79.61054 566 ft 4 kts 250°
2026-05-05 22:19 43.67476 -79.61090 566 ft 4 kts 224°
2026-05-05 22:19 43.67446 -79.61103 574 ft 5 kts 185°
2026-05-05 22:20 43.67412 -79.61099 572 ft 5 kts 173°
2026-05-05 22:20 43.67378 -79.61094 574 ft 5 kts 173°
2026-05-05 22:20 43.67344 -79.61091 572 ft 5 kts 184°
2026-05-05 22:20 43.67315 -79.61114 572 ft 5 kts 224°
2026-05-05 22:21 43.67294 -79.61152 574 ft 5 kts 233°
2026-05-05 22:21 43.67273 -79.61192 573 ft 6 kts 237°
2026-05-05 22:21 43.67274 -79.61255 574 ft 8 kts 300°
2026-05-05 22:21 43.67324 -79.61323 566 ft 12 kts 316°
2026-05-05 22:22 43.67396 -79.61417 571 ft 16 kts 316°
2026-05-05 22:22 43.67478 -79.61523 569 ft 16 kts 316°
2026-05-05 22:22 43.67559 -79.61630 577 ft 16 kts 316°
2026-05-05 22:22 43.67641 -79.61736 575 ft 16 kts 316°
2026-05-05 22:23 43.67722 -79.61843 567 ft 16 kts 316°
2026-05-05 22:23 43.67804 -79.61949 575 ft 16 kts 317°
2026-05-05 22:23 43.67887 -79.62054 574 ft 16 kts 322°
2026-05-05 22:23 43.67987 -79.62122 566 ft 16 kts 320°
2026-05-05 22:24 43.68069 -79.62228 568 ft 16 kts 316°
2026-05-05 22:24 43.68150 -79.62333 570 ft 16 kts 317°
2026-05-05 22:24 43.68233 -79.62437 576 ft 16 kts 319°
2026-05-05 22:24 43.68318 -79.62539 573 ft 16 kts 316°
2026-05-05 22:25 43.68400 -79.62646 571 ft 16 kts 316°
2026-05-05 22:25 43.68481 -79.62753 569 ft 16 kts 316°
2026-05-05 22:25 43.68563 -79.62859 574 ft 16 kts 317°
2026-05-05 22:25 43.68646 -79.62965 575 ft 16 kts 316°
2026-05-05 22:26 43.68727 -79.63072 573 ft 16 kts 316°
2026-05-05 22:26 43.68809 -79.63179 569 ft 16 kts 316°
2026-05-05 22:26 43.68891 -79.63285 573 ft 16 kts 316°
2026-05-05 22:26 43.68971 -79.63390 573 ft 16 kts 316°
2026-05-05 22:27 43.69049 -79.63492 574 ft 10 kts 316°
2026-05-05 22:27 43.69091 -79.63532 574 ft 7 kts 346°
2026-05-05 22:27 43.69135 -79.63506 575 ft 7 kts 45°
2026-05-05 22:27 43.69170 -79.63456 570 ft 7 kts 44°
2026-05-05 22:28 43.69215 -79.63428 577 ft 7 kts 13°
2026-05-05 22:28 43.69266 -79.63423 572 ft 7 kts
2026-05-05 22:28 43.69319 -79.63420 570 ft 8 kts
2026-05-05 22:28 43.69370 -79.63440 567 ft 6 kts 324°
2026-05-05 22:29 43.69403 -79.63482 573 ft 7 kts 313°
2026-05-05 22:29 43.69393 -79.63538 565 ft 5 kts 227°
2026-05-05 22:29 43.69390 -79.63542 565 ft 0 kts 228°
2026-05-05 22:29 43.69332 -79.63628 574 ft 37 kts 226°
2026-05-05 22:30 43.68977 -79.64142 577 ft 108 kts 226°
2026-05-05 22:30 43.68306 -79.65114 577 ft 168 kts 226°
2026-05-05 22:30 43.67420 -79.66423 792 ft 192 kts 227°
2026-05-05 22:30 43.66519 -79.67766 1422 ft 192 kts 232°
2026-05-05 22:31 43.65725 -79.69254 2000 ft 193 kts 236°
2026-05-05 22:31 43.64948 -79.70765 2564 ft 192 kts 236°
2026-05-05 22:31 43.64197 -79.72334 2792 ft 208 kts 240°
2026-05-05 22:31 43.63418 -79.74116 3047 ft 225 kts 240°
2026-05-05 22:32 43.62571 -79.76045 3323 ft 242 kts 240°
2026-05-05 22:32 43.61648 -79.78069 3773 ft 254 kts 238°
2026-05-05 22:32 43.60616 -79.80064 4283 ft 258 kts 227°
2026-05-05 22:32 43.59109 -79.81426 4776 ft 267 kts 198°
2026-05-05 22:33 43.57263 -79.81597 5457 ft 271 kts 171°
2026-05-05 22:33 43.55523 -79.80578 6118 ft 278 kts 144°
2026-05-05 22:33 43.54302 -79.78495 6674 ft 288 kts 114°
2026-05-05 22:33 43.53747 -79.75833 7121 ft 292 kts 105°
2026-05-05 22:34 43.53222 -79.73136 7615 ft 297 kts 108°
2026-05-05 22:34 43.52653 -79.70394 8253 ft 299 kts 108°
2026-05-05 22:34 43.52078 -79.67621 8815 ft 303 kts 108°
2026-05-05 22:34 43.51500 -79.64815 9399 ft 307 kts 109°
2026-05-05 22:35 43.50917 -79.61974 9983 ft 309 kts 109°
2026-05-05 22:35 43.50417 -79.59072 10376 ft 317 kts 100°
2026-05-05 22:35 43.50494 -79.55961 10476 ft 338 kts 75°
2026-05-05 22:35 43.51322 -79.52873 10621 ft 350 kts 69°
2026-05-05 22:36 43.52091 -79.49585 10773 ft 371 kts 76°
2026-05-05 22:36 43.52751 -79.46046 10965 ft 392 kts 77°
2026-05-05 22:36 43.53494 -79.42421 11433 ft 403 kts 71°
2026-05-05 22:36 43.54618 -79.38843 12030 ft 412 kts 63°
2026-05-05 22:37 43.55966 -79.35337 12814 ft 416 kts 62°
2026-05-05 22:37 43.57312 -79.31776 13566 ft 420 kts 63°
2026-05-05 22:37 43.58643 -79.28163 14301 ft 426 kts 63°
2026-05-05 22:37 43.59979 -79.24492 15034 ft 430 kts 64°
2026-05-05 22:38 43.61324 -79.20780 15744 ft 435 kts 64°
2026-05-05 22:38 43.62681 -79.17024 16438 ft 440 kts 64°
2026-05-05 22:38 43.64033 -79.13274 17120 ft 444 kts 64°
2026-05-05 22:38 43.65414 -79.09440 17808 ft 448 kts 64°
2026-05-05 22:39 43.66811 -79.05561 18471 ft 453 kts 64°
2026-05-05 22:39 43.68218 -79.01649 19092 ft 457 kts 64°
2026-05-05 22:39 43.69640 -78.97693 19704 ft 462 kts 64°
2026-05-05 22:39 43.71071 -78.93708 20316 ft 465 kts 64°
2026-05-05 22:40 43.72513 -78.89677 20889 ft 470 kts 64°
2026-05-05 22:40 43.73965 -78.85612 21460 ft 474 kts 64°
2026-05-05 22:40 43.75431 -78.81513 22022 ft 477 kts 64°
2026-05-05 22:40 43.76886 -78.77430 22543 ft 481 kts 64°
2026-05-05 22:41 43.78363 -78.73258 23069 ft 485 kts 64°
2026-05-05 22:41 43.79830 -78.69041 23571 ft 489 kts 64°
2026-05-05 22:41 43.81299 -78.64783 24084 ft 492 kts 64°
2026-05-05 22:41 43.82773 -78.60488 24541 ft 496 kts 64°
2026-05-05 22:42 43.84264 -78.56155 25000 ft 499 kts 64°
2026-05-05 22:42 43.85761 -78.51806 25479 ft 502 kts 64°
2026-05-05 22:42 43.87268 -78.47422 25934 ft 505 kts 64°
2026-05-05 22:42 43.88780 -78.43022 26368 ft 508 kts 64°
2026-05-05 22:43 43.90282 -78.38645 26776 ft 511 kts 64°
2026-05-05 22:43 43.91809 -78.34188 27167 ft 514 kts 64°
2026-05-05 22:43 43.93343 -78.29696 27560 ft 516 kts 64°
2026-05-05 22:43 43.94884 -78.25179 27940 ft 519 kts 64°
2026-05-05 22:44 43.96431 -78.20639 28286 ft 522 kts 64°
2026-05-05 22:44 43.97984 -78.16069 28643 ft 524 kts 64°
2026-05-05 22:44 43.99540 -78.11483 28981 ft 526 kts 64°
2026-05-05 22:44 44.01102 -78.06877 29273 ft 529 kts 64°
2026-05-05 22:45 44.02669 -78.02247 29579 ft 530 kts 64°
2026-05-05 22:45 44.04214 -77.97675 29967 ft 529 kts 64°
2026-05-05 22:45 44.05777 -77.93047 30395 ft 528 kts 64°
2026-05-05 22:45 44.07331 -77.88429 30767 ft 527 kts 64°
2026-05-05 22:46 44.08881 -77.83810 31098 ft 527 kts 64°
2026-05-05 22:46 44.10433 -77.79178 31427 ft 528 kts 64°
2026-05-05 22:46 44.11980 -77.74557 31749 ft 527 kts 64°
2026-05-05 22:46 44.13526 -77.69931 32050 ft 527 kts 63°
2026-05-05 22:47 44.15072 -77.65301 32345 ft 527 kts 63°
2026-05-05 22:47 44.16616 -77.60673 32663 ft 527 kts 63°
2026-05-05 22:47 44.18140 -77.56096 32795 ft 530 kts 63°
2026-05-05 22:48 44.21758 -77.47136 32837 ft 531 kts 52°
2026-05-05 22:48 44.26348 -77.39172 32840 ft 525 kts 47°
2026-05-05 22:49 44.30959 -77.31271 32849 ft 524 kts 48°
2026-05-05 22:49 44.35515 -77.23326 32832 ft 524 kts 49°
2026-05-05 22:50 44.40010 -77.15425 32835 ft 524 kts 49°
2026-05-05 22:50 44.44547 -77.07431 32824 ft 525 kts 49°
2026-05-05 22:51 44.49085 -76.99419 32827 ft 525 kts 49°
2026-05-05 22:51 44.53626 -76.91391 32824 ft 526 kts 49°
2026-05-05 22:52 44.58164 -76.83343 32813 ft 526 kts 49°
2026-05-05 22:52 44.62694 -76.75287 32815 ft 526 kts 50°
2026-05-05 22:53 44.67188 -76.67266 32814 ft 525 kts 50°
2026-05-05 22:53 44.71698 -76.59195 32811 ft 525 kts 50°
2026-05-05 22:54 44.76202 -76.51119 32800 ft 525 kts 50°
2026-05-05 22:54 44.80698 -76.43024 32791 ft 525 kts 50°
2026-05-05 22:55 44.85157 -76.34977 32786 ft 525 kts 50°
2026-05-05 22:55 44.89620 -76.26834 32770 ft 526 kts 52°
2026-05-05 22:56 44.93751 -76.18319 32762 ft 527 kts 55°